^^
Saratoga-Weather Station Historical Data
Daily Summary for June 22, 2022 Units:  English    Metric   Both
Daily Weekly Monthly Yearly Custom
  High: Low: Average:
Temperature: 79.3 °F 63.3 °F 69.8 °F
Dew Point: 70.5 °F 53.4 °F 60.8 °F
Humidity: 94% 54% 74%
Wind Speed: 11mph 0mph 1.2mph
Wind Gust: 11mph - -
Wind- - SSE
Pressure: 29.8 in 29.8 in -
Precipitation: 0.35 in    
Historical Graphs
 
 
Tabular Data for June 22, 2022
Time Temperature Dew Point Pressure Wind Wind Speed Wind Gust Humidity Rainfall Rate (Hourly) solar
00:02 71.1 °F 57.7 °F 29.8 in Calm     63% 0 in 0 W/m2
00:07 71.1 °F 57.7 °F 29.8 in Calm   3 mph 63% 0 in 0 W/m2
00:12 71.1 °F 57.4 °F 29.8 in East 2 mph 4 mph 62% 0 in 0 W/m2
00:17 70.9 °F 57.2 °F 29.8 in SSE 0.9 mph 3 mph 62% 0 in 0 W/m2
00:22 70.7 °F 57.6 °F 29.8 in South 0.9 mph 4 mph 63% 0 in 0 W/m2
00:27 70.5 °F 56.8 °F 29.8 in Calm   3 mph 62% 0 in 0 W/m2
00:32 70.5 °F 56.8 °F 29.8 in North 2 mph 3 mph 62% 0 in 0 W/m2
00:37 70.3 °F 57.2 °F 29.8 in Calm   2 mph 63% 0 in 0 W/m2
00:42 70.3 °F 57.2 °F 29.8 in NW 0.9 mph 3 mph 63% 0 in 0 W/m2
00:47 70.2 °F 57 °F 29.8 in North 0.9 mph 3 mph 63% 0 in 0 W/m2
00:52 70 °F 56.8 °F 29.8 in WNW 0.9 mph 3 mph 63% 0 in 0 W/m2
00:57 69.8 °F 56.7 °F 29.8 in ENE 2 mph 2 mph 63% 0 in 0 W/m2
01:02 69.6 °F 56.5 °F 29.8 in North 2.9 mph 3 mph 63% 0 in 0 W/m2
01:07 69.4 °F 56.7 °F 29.8 in Calm   1 mph 64% 0 in 0 W/m2
01:12 69.3 °F 56.5 °F 29.8 in East 0.9 mph 4 mph 64% 0 in 0 W/m2
01:17 69.3 °F 56.5 °F 29.8 in Calm   1 mph 64% 0 in 0 W/m2
01:22 69.1 °F 56.5 °F 29.8 in Calm   3 mph 64% 0 in 0 W/m2
01:27 68.9 °F 56.7 °F 29.8 in ENE 4 mph 4 mph 65% 0 in 0 W/m2
01:32 68.7 °F 56.1 °F 29.8 in ENE 2 mph 2 mph 64% 0 in 0 W/m2
01:37 68.5 °F 56.3 °F 29.8 in WNW 2.9 mph 3 mph 65% 0 in 0 W/m2
01:42 68.4 °F 56.1 °F 29.8 in Calm   1 mph 65% 0 in 0 W/m2
01:47 68.2 °F 55.9 °F 29.8 in NE 0.9 mph 3 mph 65% 0 in 0 W/m2
01:52 68 °F 56.3 °F 29.8 in NE 2 mph 3 mph 66% 0 in 0 W/m2
01:57 67.8 °F 55.6 °F 29.8 in Calm   2 mph 65% 0 in 0 W/m2
02:02 67.8 °F 55.6 °F 29.8 in Calm   2 mph 65% 0 in 0 W/m2
02:07 67.6 °F 55.4 °F 29.8 in West 0.9 mph 3 mph 65% 0 in 0 W/m2
02:12 67.6 °F 55.4 °F 29.8 in Calm   3 mph 65% 0 in 0 W/m2
02:17 67.5 °F 55.8 °F 29.8 in NNE 2 mph 3 mph 66% 0 in 0 W/m2
02:22 67.5 °F 55.2 °F 29.8 in WNW 0.9 mph 3 mph 65% 0 in 0 W/m2
02:27 67.3 °F 55.6 °F 29.8 in Calm   1 mph 66% 0 in 0 W/m2
02:32 67.3 °F 55.6 °F 29.8 in WNW 0.9 mph 3 mph 66% 0 in 0 W/m2
02:37 66.9 °F 55.6 °F 29.8 in ENE 2.9 mph 4 mph 67% 0 in 0 W/m2
02:42 66.9 °F 55.6 °F 29.8 in ENE 2 mph 3 mph 67% 0 in 0 W/m2
02:47 66.7 °F 55 °F 29.8 in WNW 2.9 mph 4 mph 66% 0 in 0 W/m2
02:52 66.7 °F 55 °F 29.8 in NNW 2 mph 3 mph 66% 0 in 0 W/m2
02:57 66.6 °F 54.9 °F 29.8 in WSW 0.9 mph 3 mph 66% 0 in 0 W/m2
03:02 66.6 °F 54.9 °F 29.8 in NNW 2.9 mph 3 mph 66% 0 in 0 W/m2
03:07 66.4 °F 54.7 °F 29.8 in Calm   3 mph 66% 0 in 0 W/m2
03:12 66.2 °F 54.9 °F 29.8 in West 2.9 mph 4 mph 67% 0 in 0 W/m2
03:17 66 °F 54.7 °F 29.8 in Calm   1 mph 67% 0 in 0 W/m2
03:22 66 °F 54.7 °F 29.8 in SSW 4 mph 4 mph 67% 0 in 0 W/m2
03:27 65.8 °F 54.5 °F 29.8 in Calm   2 mph 67% 0 in 0 W/m2
03:32 65.8 °F 54.5 °F 29.8 in WNW 2 mph 2 mph 67% 0 in 0 W/m2
03:37 65.8 °F 54.5 °F 29.8 in North 2 mph 3 mph 67% 0 in 0 W/m2
03:42 65.8 °F 54.1 °F 29.8 in East 0.9 mph 3 mph 66% 0 in 0 W/m2
03:47 65.7 °F 54 °F 29.8 in ESE 2 mph 4 mph 66% 0 in 0 W/m2
03:52 65.5 °F 53.8 °F 29.8 in East 0.9 mph 3 mph 66% 0 in 0 W/m2
03:57 65.5 °F 54.3 °F 29.8 in Calm   2 mph 67% 0 in 0 W/m2
04:02 65.1 °F 54 °F 29.8 in NW 0.9 mph 1 mph 67% 0 in 0 W/m2
04:07 65.1 °F 54 °F 29.8 in WNW 0.9 mph 3 mph 67% 0 in 0 W/m2
04:12 64.9 °F 54.1 °F 29.8 in NE 0.9 mph 2 mph 68% 0 in 0 W/m2
04:17 64.9 °F 54.1 °F 29.8 in NNW 0.9 mph 2 mph 68% 0 in 0 W/m2
04:22 64.9 °F 54.1 °F 29.8 in ENE 0.9 mph 2 mph 68% 0 in 0 W/m2
04:27 64.9 °F 54.1 °F 29.8 in Calm   1 mph 68% 0 in 0 W/m2
04:32 64.8 °F 54 °F 29.8 in Calm     68% 0 in 0 W/m2
04:37 64.8 °F 54 °F 29.8 in NE 0.9 mph 1 mph 68% 0 in 0 W/m2
04:42 64.8 °F 54 °F 29.8 in Calm   2 mph 68% 0 in 0 W/m2
04:47 64.6 °F 53.8 °F 29.8 in Calm   3 mph 68% 0 in 0 W/m2
04:52 64.6 °F 53.8 °F 29.8 in Calm   1 mph 68% 0 in 0 W/m2
04:57 64.4 °F 54 °F 29.8 in Calm   1 mph 69% 0 in 0 W/m2
05:02 64.4 °F 53.6 °F 29.8 in Calm   2 mph 68% 0 in 0 W/m2
05:07 64.2 °F 53.8 °F 29.8 in East 0.9 mph 1 mph 69% 0 in 0 W/m2
05:12 64.2 °F 53.8 °F 29.8 in East 0.9 mph 1 mph 69% 0 in 0 W/m2
05:17 64 °F 53.6 °F 29.8 in Calm   2 mph 69% 0 in 0 W/m2
05:22 64 °F 53.6 °F 29.8 in Calm   3 mph 69% 0 in 7 W/m2
05:27 64 °F 53.6 °F 29.8 in Calm   1 mph 69% 0 in 7 W/m2
05:32 63.9 °F 54 °F 29.8 in Calm   3 mph 70% 0 in 5 W/m2
05:37 63.7 °F 53.8 °F 29.8 in Calm   1 mph 70% 0 in 5 W/m2
05:42 63.7 °F 53.8 °F 29.8 in Calm   1 mph 70% 0 in 7 W/m2
05:47 63.7 °F 53.8 °F 29.8 in Calm     70% 0 in 9 W/m2
05:52 63.5 °F 53.6 °F 29.8 in Calm     70% 0 in 11 W/m2
05:57 63.5 °F 53.6 °F 29.8 in Calm     70% 0 in 16 W/m2
06:02 63.3 °F 53.4 °F 29.8 in Calm     70% 0 in 18 W/m2
06:07 63.3 °F 53.8 °F 29.8 in Calm   1 mph 71% 0 in 16 W/m2
06:12 63.3 °F 53.4 °F 29.8 in Calm   1 mph 70% 0 in 19 W/m2
06:17 63.3 °F 53.4 °F 29.8 in Calm     70% 0 in 23 W/m2
06:22 63.3 °F 53.4 °F 29.8 in ENE 0.9 mph 4 mph 70% 0 in 21 W/m2
06:27 63.5 °F 53.6 °F 29.8 in East 2 mph 2 mph 70% 0 in 23 W/m2
06:32 63.5 °F 53.6 °F 29.8 in East 2 mph 4 mph 70% 0 in 28 W/m2
06:37 63.5 °F 53.6 °F 29.8 in Calm   1 mph 70% 0 in 35 W/m2
06:42 63.5 °F 53.6 °F 29.8 in NW 2 mph 2 mph 70% 0 in 40 W/m2
06:47 63.7 °F 54.1 °F 29.8 in Calm     71% 0 in 47 W/m2
06:52 63.7 °F 54.1 °F 29.8 in Calm   2 mph 71% 0 in 62 W/m2
06:57 63.7 °F 53.8 °F 29.8 in WNW 0.9 mph 1 mph 70% 0 in 65 W/m2
07:02 63.9 °F 54 °F 29.8 in Calm   2 mph 70% 0 in 62 W/m2
07:07 64 °F 54.1 °F 29.8 in Calm   2 mph 70% 0 in 60 W/m2
07:12 64 °F 53.6 °F 29.8 in WNW 2 mph 3 mph 69% 0 in 65 W/m2
07:17 64.2 °F 53.8 °F 29.8 in Calm   3 mph 69% 0 in 62 W/m2
07:22 64.2 °F 53.8 °F 29.8 in North 0.9 mph 3 mph 69% 0 in 51 W/m2
07:28 64.2 °F 53.8 °F 29.8 in NE 2 mph 3 mph 69% 0 in 42 W/m2
07:33 64.2 °F 53.8 °F 29.8 in Calm   3 mph 69% 0 in 40 W/m2
07:38 64.2 °F 53.8 °F 29.8 in Calm   2 mph 69% 0 in 35 W/m2
07:43 64.2 °F 53.8 °F 29.8 in North 0.9 mph 3 mph 69% 0 in 30 W/m2
07:48 64.4 °F 54 °F 29.8 in Calm   1 mph 69% 0 in 33 W/m2
07:53 64.4 °F 54 °F 29.8 in Calm   2 mph 69% 0 in 49 W/m2
07:58 64.6 °F 54.1 °F 29.8 in Calm   1 mph 69% 0 in 62 W/m2
08:03 64.6 °F 54.1 °F 29.8 in North 0.9 mph 2 mph 69% 0 in 62 W/m2
08:08 64.6 °F 54.5 °F 29.8 in NE 2 mph 6 mph 70% 0 in 98 W/m2
08:13 64.6 °F 54.5 °F 29.8 in ENE 0.9 mph 3 mph 70% 0 in 160 W/m2
08:18 64.6 °F 55 °F 29.8 in NE 0.9 mph 2 mph 71% 0 in 183 W/m2
08:23 64.8 °F 55.2 °F 29.8 in Calm   2 mph 71% 0 in 118 W/m2
08:28 64.9 °F 55.8 °F 29.8 in Calm   1 mph 72% 0 in 128 W/m2
08:33 64.9 °F 55.4 °F 29.8 in SE 0.9 mph 2 mph 71% 0 in 118 W/m2
08:38 65.1 °F 55.4 °F 29.8 in Calm   2 mph 71% 0 in 95 W/m2
08:43 64.9 °F 55.4 °F 29.8 in NE 0.9 mph 2 mph 71% 0 in 97 W/m2
08:48 64.9 °F 55.4 °F 29.8 in NE 2 mph 2 mph 71% 0 in 109 W/m2
08:53 64.9 °F 55.8 °F 29.8 in ESE 2 mph 3 mph 72% 0 in 113 W/m2
08:58 64.9 °F 55.8 °F 29.8 in Calm   1 mph 72% 0 in 100 W/m2
09:03 65.1 °F 55.4 °F 29.8 in Calm   3 mph 71% 0 in 90 W/m2
09:08 65.1 °F 55.4 °F 29.8 in SSE 0.9 mph 1 mph 71% 0 in 86 W/m2
09:13 65.3 °F 55.2 °F 29.8 in Calm   2 mph 70% 0 in 90 W/m2
09:18 65.5 °F 55.4 °F 29.8 in ENE 2 mph 2 mph 70% 0 in 91 W/m2
09:23 65.7 °F 55.6 °F 29.8 in Calm   1 mph 70% 0 in 97 W/m2
09:28 65.7 °F 55.2 °F 29.8 in Calm     69% 0 in 100 W/m2
09:33 65.8 °F 55.4 °F 29.8 in NNW 0.9 mph 1 mph 69% 0 in 105 W/m2
09:38 65.8 °F 55.4 °F 29.8 in Calm   1 mph 69% 0 in 113 W/m2
09:43 66 °F 55.6 °F 29.8 in Calm   1 mph 69% 0 in 113 W/m2
09:48 66.4 °F 55.9 °F 29.8 in NNW 0.9 mph 1 mph 69% 0 in 113 W/m2
09:53 66.4 °F 55.9 °F 29.8 in Calm   1 mph 69% 0 in 146 W/m2
09:58 66.6 °F 56.1 °F 29.8 in NE 2 mph 3 mph 69% 0 in 185 W/m2
10:03 66.7 °F 55.8 °F 29.8 in ENE 2 mph 3 mph 68% 0 in 206 W/m2
10:08 66.9 °F 55.9 °F 29.8 in East 2 mph 2 mph 68% 0 in 236 W/m2
10:13 67.3 °F 56.3 °F 29.8 in Calm   2 mph 68% 0 in 267 W/m2
10:18 67.6 °F 56.7 °F 29.8 in ENE 0.9 mph 2 mph 68% 0 in 255 W/m2
10:23 67.8 °F 56.8 °F 29.8 in ENE 2 mph 4 mph 68% 0 in 274 W/m2
10:28 68.2 °F 56.8 °F 29.8 in NW 0.9 mph 5 mph 67% 0 in 318 W/m2
10:33 68.5 °F 57.2 °F 29.8 in NE 0.9 mph 2 mph 67% 0 in 452 W/m2
10:38 69.3 °F 57.4 °F 29.8 in Calm   5 mph 66% 0 in 548 W/m2
10:43 70 °F 58.1 °F 29.8 in ESE 2 mph 2 mph 66% 0 in 485 W/m2
10:48 70.5 °F 57.4 °F 29.8 in East 2 mph 4 mph 63% 0 in 494 W/m2
10:53 70.9 °F 57.7 °F 29.8 in ENE 2 mph 3 mph 63% 0 in 540 W/m2
10:58 71.2 °F 57.6 °F 29.8 in NNW 0.9 mph 4 mph 62% 0 in 390 W/m2
11:03 71.6 °F 57 °F 29.8 in ENE 0.9 mph 5 mph 60% 0 in 345 W/m2
11:08 71.8 °F 57.2 °F 29.8 in NE 2 mph 4 mph 60% 0 in 394 W/m2
11:13 72 °F 57.7 °F 29.8 in East 2.9 mph 5 mph 61% 0 in 396 W/m2
11:18 72.1 °F 57.9 °F 29.8 in SSE 2 mph 4 mph 61% 0 in 366 W/m2
11:23 72.7 °F 57.9 °F 29.8 in SSE 2.9 mph 4 mph 60% 0 in 761 W/m2
11:28 73.2 °F 58.5 °F 29.8 in East 2.9 mph 6 mph 60% 0 in 791 W/m2
11:33 73.9 °F 59.2 °F 29.8 in NE 2 mph 4 mph 60% 0 in 564 W/m2
11:38 74.5 °F 59.2 °F 29.8 in Calm   3 mph 59% 0 in 541 W/m2
11:43 74.7 °F 59.4 °F 29.8 in NE 2.9 mph 7 mph 59% 0 in 874 W/m2
11:48 75 °F 59.7 °F 29.8 in ESE 2.9 mph 5 mph 59% 0 in 798 W/m2
11:53 75.6 °F 59.2 °F 29.8 in ESE 4 mph 5 mph 57% 0 in 455 W/m2
11:58 75.6 °F 59.2 °F 29.8 in ESE 2 mph 4 mph 57% 0 in 515 W/m2
12:03 75.6 °F 59.7 °F 29.8 in NNE 2 mph 3 mph 58% 0 in 712 W/m2
12:08 75.9 °F 59.5 °F 29.8 in NE 2 mph 6 mph 57% 0 in 710 W/m2
12:13 76.3 °F 60.4 °F 29.8 in SE 2.9 mph 7 mph 58% 0 in 589 W/m2
12:18 76.8 °F 60.4 °F 29.8 in ESE 0.9 mph 4 mph 57% 0 in 682 W/m2
12:23 77.4 °F 60.4 °F 29.8 in ENE 4 mph 7 mph 56% 0 in 603 W/m2
12:28 77.5 °F 60.1 °F 29.8 in East 2 mph 4 mph 55% 0 in 573 W/m2
12:33 77.5 °F 60.6 °F 29.8 in ESE 4 mph 5 mph 56% 0 in 877 W/m2
12:38 78.1 °F 61.2 °F 29.8 in SE 2.9 mph 4 mph 56% 0 in 580 W/m2
12:43 78.4 °F 61.5 °F 29.8 in NE 4 mph 4 mph 56% 0 in 555 W/m2
12:48 78.4 °F 60.4 °F 29.8 in North 2.9 mph 4 mph 54% 0 in 728 W/m2
12:53 78.6 °F 63.1 °F 29.8 in SE 2 mph 7 mph 59% 0 in 487 W/m2
12:58 79 °F 63.9 °F 29.8 in ENE 6.9 mph 7 mph 60% 0 in 533 W/m2
13:03 78.6 °F 63.5 °F 29.8 in ENE 2.9 mph 4 mph 60% 0 in 584 W/m2
13:08 79.2 °F 64.6 °F 29.8 in ENE 2 mph 6 mph 61% 0 in 496 W/m2
13:13 79.3 °F 64.2 °F 29.8 in NE 2 mph 9 mph 60% 0 in 469 W/m2
13:18 79.3 °F 64.8 °F 29.8 in East 4 mph 4 mph 61% 0 in 650 W/m2
13:23 79.3 °F 64.8 °F 29.8 in ENE 2.9 mph 9 mph 61% 0 in 403 W/m2
13:28 79.3 °F 64.8 °F 29.8 in East 0.9 mph 6 mph 61% 0 in 362 W/m2
13:33 79.3 °F 65.7 °F 29.8 in East 6 mph 7 mph 63% 0 in 290 W/m2
13:38 79 °F 65.3 °F 29.8 in SE 0.9 mph 2 mph 63% 0 in 267 W/m2
13:43 79 °F 65.3 °F 29.8 in ESE 0.9 mph 2 mph 63% 0 in 302 W/m2
13:48 79 °F 65.3 °F 29.8 in ENE 2 mph 5 mph 63% 0 in 239 W/m2
13:53 78.6 °F 64.9 °F 29.8 in NNW 2 mph 5 mph 63% 0 in 176 W/m2
13:58 78.3 °F 65.1 °F 29.8 in ESE 0.9 mph 2 mph 64% 0 in 163 W/m2
14:03 78.1 °F 65.3 °F 29.8 in East 2 mph 7 mph 65% 0 in 169 W/m2
14:08 77.7 °F 64.9 °F 29.8 in South 0.9 mph 6 mph 65% 0 in 248 W/m2
14:13 77.7 °F 64.9 °F 29.8 in ENE 0.9 mph 7 mph 65% 0 in 288 W/m2
14:18 77.7 °F 64.9 °F 29.8 in ESE 0.9 mph 6 mph 65% 0 in 264 W/m2
14:23 77.7 °F 64.9 °F 29.8 in SSE 2 mph 2 mph 65% 0 in 197 W/m2
14:28 77.7 °F 64.9 °F 29.8 in Calm   3 mph 65% 0 in 174 W/m2
14:33 77.9 °F 65.1 °F 29.8 in East 0.9 mph 3 mph 65% 0 in 144 W/m2
14:38 77.7 °F 64.9 °F 29.8 in East 2 mph 4 mph 65% 0 in 95 W/m2
14:43 77.5 °F 65.3 °F 29.8 in ESE 0.9 mph 4 mph 66% 0 in 93 W/m2
14:48 77.4 °F 65.5 °F 29.8 in SE 2 mph 2 mph 67% 0 in 79 W/m2
14:53 77.2 °F 65.3 °F 29.8 in NNE 0.9 mph 2 mph 67% 0 in 65 W/m2
14:58 77.2 °F 65.3 °F 29.8 in Calm   2 mph 67% 0 in 69 W/m2
15:03 77.2 °F 65.3 °F 29.8 in ESE 0.9 mph 2 mph 67% 0 in 53 W/m2
15:08 77 °F 65.1 °F 29.8 in SW 2 mph 2 mph 67% 0 in 28 W/m2
15:13 75.6 °F 64.8 °F 29.8 in NW 10.1 mph 11 mph 69% 0 in 11 W/m2
15:18 73.2 °F 64.4 °F 29.8 in NW 6.9 mph 11 mph 74% 0 in 12 W/m2
15:23 72 °F 64 °F 29.8 in WNW 4 mph 8 mph 76% 0 in 18 W/m2
15:28 70.9 °F 64 °F 29.8 in West 11 mph 11 mph 79% 0.06 in 23 W/m2
15:33 69.1 °F 64 °F 29.8 in West 2.9 mph 6 mph 84% 0.27 in 28 W/m2
15:38 67.6 °F 63.7 °F 29.8 in West 11 mph 11 mph 87% 0.3 in 32 W/m2
15:43 66.9 °F 63.5 °F 29.8 in WNW 2.9 mph 6 mph 89% 0.31 in 33 W/m2
15:48 66.7 °F 63.7 °F 29.8 in WNW 0.9 mph 3 mph 90% 0.31 in 37 W/m2
15:53 66.7 °F 64 °F 29.8 in WNW 0.9 mph 2 mph 91% 0.32 in 42 W/m2
15:58 66.7 °F 64.4 °F 29.8 in WNW 0.9 mph 2 mph 92% 0.33 in 46 W/m2
16:03 66.7 °F 64.4 °F 29.8 in Calm   1 mph 92% 0.33 in 47 W/m2
16:08 66.7 °F 64.6 °F 29.8 in NNW 0.9 mph 1 mph 93% 0.33 in 51 W/m2
16:13 66.9 °F 64.8 °F 29.8 in WNW 2 mph 2 mph 93% 0.34 in 58 W/m2
16:18 66.9 °F 64.8 °F 29.8 in WSW 2 mph 2 mph 93% 0.35 in 67 W/m2
16:23 66.7 °F 64.6 °F 29.8 in West 4 mph 5 mph 93% 0.35 in 74 W/m2
16:28 66.6 °F 64.4 °F 29.8 in Calm   4 mph 93% 0.27 in 90 W/m2
16:34 66.7 °F 64.9 °F 29.8 in Calm   1 mph 94% 0.07 in 148 W/m2
16:39 66.7 °F 64.9 °F 29.8 in Calm     94% 0.04 in 232 W/m2
16:44 67.3 °F 65.5 °F 29.8 in NW 4 mph 4 mph 94% 0.04 in 278 W/m2
16:49 67.6 °F 65.8 °F 29.8 in WSW 2.9 mph 7 mph 94% 0.03 in 295 W/m2
16:54 67.5 °F 65.7 °F 29.8 in Calm   2 mph 94% 0.02 in 322 W/m2
16:59 67.8 °F 66 °F 29.8 in WSW 0.9 mph 6 mph 94% 0.02 in 357 W/m2
17:04 68.2 °F 66.4 °F 29.8 in NNW 2 mph 3 mph 94% 0.02 in 399 W/m2
17:09 68.5 °F 66.4 °F 29.8 in Calm   1 mph 93% 0.02 in 436 W/m2
17:14 69.3 °F 67.1 °F 29.8 in NNW 2 mph 2 mph 93% 0.01 in 717 W/m2
17:19 70.2 °F 68 °F 29.8 in NNW 0.9 mph 2 mph 93% 0 in 714 W/m2
17:24 70.9 °F 68.4 °F 29.8 in WNW 2 mph 4 mph 92% 0 in 749 W/m2
17:29 72 °F 69.3 °F 29.8 in NE 0.9 mph 2 mph 91% 0 in 677 W/m2
17:34 72.5 °F 68.4 °F 29.8 in NE 2 mph 4 mph 87% 0 in 568 W/m2
17:39 73 °F 68.2 °F 29.8 in Calm   1 mph 85% 0 in 563 W/m2
17:44 73.6 °F 68.4 °F 29.8 in East 2 mph 3 mph 84% 0 in 550 W/m2
17:49 73.9 °F 68.4 °F 29.8 in ENE 0.9 mph 3 mph 83% 0 in 489 W/m2
17:54 74.5 °F 68.9 °F 29.8 in Calm     83% 0 in 287 W/m2
17:59 74.8 °F 68.9 °F 29.8 in NE 2 mph 2 mph 82% 0 in 482 W/m2
18:04 75 °F 68 °F 29.8 in NNE 2 mph 3 mph 79% 0 in 457 W/m2
18:09 75.4 °F 68 °F 29.8 in NE 0.9 mph 2 mph 78% 0 in 471 W/m2
18:14 75.7 °F 69.4 °F 29.8 in East 2.9 mph 3 mph 81% 0 in 455 W/m2
18:19 75.9 °F 68.9 °F 29.8 in East 0.9 mph 5 mph 79% 0 in 478 W/m2
18:24 75.9 °F 68.2 °F 29.8 in SE 2.9 mph 4 mph 77% 0 in 464 W/m2
18:29 76.1 °F 68.7 °F 29.8 in East 0.9 mph 4 mph 78% 0 in 392 W/m2
18:34 76.1 °F 68.7 °F 29.8 in SE 2 mph 3 mph 78% 0 in 385 W/m2
18:39 76.3 °F 69.6 °F 29.8 in Calm   2 mph 80% 0 in 287 W/m2
18:44 76.3 °F 70 °F 29.8 in SE 0.9 mph 1 mph 81% 0 in 251 W/m2
18:49 76.3 °F 70.3 °F 29.8 in SE 0.9 mph 1 mph 82% 0 in 262 W/m2
18:54 76.1 °F 70.2 °F 29.8 in ESE 0.9 mph 3 mph 82% 0 in 204 W/m2
18:59 75.9 °F 69.3 °F 29.8 in SSE 0.9 mph 1 mph 80% 0 in 172 W/m2
19:04 76.1 °F 70.2 °F 29.8 in ESE 0.9 mph 1 mph 82% 0 in 165 W/m2
19:09 76.1 °F 70.2 °F 29.8 in Calm   2 mph 82% 0 in 171 W/m2
19:14 76.1 °F 70.5 °F 29.8 in Calm   1 mph 83% 0 in 174 W/m2
19:19 76.1 °F 70.2 °F 29.8 in SE 0.9 mph 2 mph 82% 0 in 162 W/m2
19:24 75.9 °F 70 °F 29.8 in Calm     82% 0 in 156 W/m2
19:29 75.9 °F 70 °F 29.8 in South 2 mph 2 mph 82% 0 in 146 W/m2
19:34 75.7 °F 69.8 °F 29.8 in Calm   1 mph 82% 0 in 137 W/m2
19:39 75.7 °F 70.2 °F 29.8 in South 0.9 mph 2 mph 83% 0 in 128 W/m2
19:44 75.6 °F 70.3 °F 29.8 in SSW 0.9 mph 1 mph 84% 0 in 114 W/m2
19:49 75.4 °F 70.2 °F 29.8 in Calm   1 mph 84% 0 in 97 W/m2
19:54 75.4 °F 69.4 °F 29.8 in NNE 0.9 mph 3 mph 82% 0 in 91 W/m2
19:59 75 °F 69.4 °F 29.8 in SE 0.9 mph 2 mph 83% 0 in 65 W/m2
20:04 74.7 °F 69.4 °F 29.8 in Calm   3 mph 84% 0 in 102 W/m2
20:09 74.5 °F 69.3 °F 29.8 in SE 2 mph 2 mph 84% 0 in 49 W/m2
20:14 73.9 °F 68.2 °F 29.8 in SSW 2.9 mph 3 mph 82% 0 in 42 W/m2
20:19 73.6 °F 68.2 °F 29.8 in Calm   1 mph 83% 0 in 53 W/m2
20:24 73.2 °F 68.2 °F 29.8 in Calm   3 mph 84% 0 in 53 W/m2
20:29 72.7 °F 67.8 °F 29.8 in South 0.9 mph 1 mph 85% 0 in 56 W/m2
20:34 72.3 °F 67.8 °F 29.8 in Calm   1 mph 86% 0 in 63 W/m2
20:39 72 °F 67.5 °F 29.8 in Calm   1 mph 86% 0 in 69 W/m2
20:44 72 °F 67.5 °F 29.8 in SE 0.9 mph 1 mph 86% 0 in 69 W/m2
20:49 72 °F 67.5 °F 29.8 in Calm   1 mph 86% 0 in 65 W/m2
20:54 71.8 °F 67.3 °F 29.8 in East 0.9 mph 2 mph 86% 0 in 56 W/m2
20:59 71.8 °F 67.3 °F 29.8 in SE 0.9 mph 1 mph 86% 0 in 49 W/m2
21:04 71.8 °F 67.1 °F 29.8 in Calm   1 mph 85% 0 in 40 W/m2
21:09 71.6 °F 67.1 °F 29.8 in Calm   1 mph 86% 0 in 35 W/m2
21:14 71.4 °F 67.1 °F 29.8 in SSW 0.9 mph 3 mph 86% 0 in 28 W/m2
21:19 71.2 °F 67.1 °F 29.8 in Calm   1 mph 87% 0 in 25 W/m2
21:24 70.9 °F 66.7 °F 29.8 in SSW 0.9 mph 3 mph 87% 0 in 19 W/m2
21:29 70.7 °F 66.6 °F 29.8 in Calm     87% 0 in 12 W/m2
21:34 70.5 °F 66.7 °F 29.8 in Calm   1 mph 88% 0 in 9 W/m2
21:39 70.3 °F 66.6 °F 29.8 in Calm     88% 0 in 9 W/m2
21:44 70.2 °F 66.4 °F 29.8 in Calm     88% 0 in 7 W/m2
21:49 69.8 °F 66 °F 29.8 in Calm   2 mph 88% 0 in 5 W/m2
21:54 69.4 °F 65.7 °F 29.8 in SSW 0.9 mph 2 mph 88% 0 in 5 W/m2
21:59 69.1 °F 65.7 °F 29.8 in Calm   1 mph 89% 0 in 0 W/m2
22:04 68.9 °F 65.5 °F 29.8 in Calm   2 mph 89% 0 in 0 W/m2
22:09 68.5 °F 65.1 °F 29.8 in Calm     89% 0 in 0 W/m2
22:14 68.4 °F 64.9 °F 29.8 in Calm     89% 0 in 0 W/m2
22:19 68.4 °F 65.3 °F 29.8 in Calm     90% 0 in 0 W/m2
22:24 68.2 °F 65.1 °F 29.8 in Calm     90% 0 in 0 W/m2
22:29 68.2 °F 65.5 °F 29.8 in Calm     91% 0 in 0 W/m2
22:34 68 °F 65.3 °F 29.8 in Calm     91% 0 in 0 W/m2
22:39 67.8 °F 65.1 °F 29.8 in Calm     91% 0 in 0 W/m2
22:44 67.8 °F 65.1 °F 29.8 in Calm   1 mph 91% 0 in 0 W/m2
22:49 67.6 °F 64.9 °F 29.8 in SSW 0.9 mph 1 mph 91% 0 in 0 W/m2
22:54 67.6 °F 65.3 °F 29.8 in Calm   1 mph 92% 0 in 0 W/m2
22:59 67.6 °F 65.3 °F 29.8 in Calm     92% 0 in 0 W/m2
23:04 67.6 °F 65.3 °F 29.8 in Calm     92% 0 in 0 W/m2
23:09 67.6 °F 65.3 °F 29.8 in Calm     92% 0 in 0 W/m2
23:14 67.6 °F 65.3 °F 29.8 in Calm     92% 0 in 0 W/m2
23:19 67.6 °F 65.3 °F 29.8 in Calm     92% 0 in 0 W/m2
23:24 67.6 °F 65.3 °F 29.8 in Calm     92% 0 in 0 W/m2
23:29 67.6 °F 65.3 °F 29.8 in Calm     92% 0 in 0 W/m2
23:34 67.6 °F 65.3 °F 29.8 in Calm     92% 0 in 0 W/m2
23:39 67.6 °F 65.3 °F 29.8 in Calm     92% 0 in 0 W/m2
23:44 67.5 °F 65.1 °F 29.8 in Calm     92% 0 in 0 W/m2
23:49 67.5 °F 65.1 °F 29.8 in Calm     92% 0 in 0 W/m2
23:54 67.5 °F 65.1 °F 29.8 in Calm     92% 0 in 0 W/m2
23:59 67.5 °F 65.1 °F 29.8 in Calm     92% 0 in 0 W/m2
Juneau County Weather
Compliments of Weather Underground - 4 mb